FW6296 Weather Reports


time (UTC)temp
C
wind
direction
speed
KPH
gust
KPH
rain 1hr
cm
rain 24hr
cm
rain mn
cm
humidity
%
barometer
mb
20260507140018 10 308 1.6 8.0 0.00 0.00 0.00 58 1015.6
20260507135018 9 322 3.2 8.0 0.00 0.00 0.00 59 1015.8
20260507134018 8 315 3.2 9.7 0.00 0.00 0.00 58 1015.9
20260507133015 8 310 3.2 11.3 0.00 0.00 0.00 58 1015.8
20260507132016 8 319 3.2 8.0 0.00 0.00 0.00 60 1015.9
20260507131016 8 316 3.2 9.7 0.00 0.00 0.00 62 1015.9
20260507130016 8 323 3.2 9.7 0.00 0.00 0.00 63 1015.8
20260507125016 8 352 1.6 6.4 0.00 0.00 0.00 63 1015.6
20260507124037 7 54 1.6 6.4 0.00 0.00 0.00 66 1015.6
20260507123017 7 56 0.0 4.8 0.00 0.00 0.00 66 1015.6
20260507122016 7 27 1.6 6.4 0.00 0.00 0.00 66 1015.5
20260507121016 6 29 0.0 8.0 0.00 0.00 0.00 70 1015.5
20260507120017 5 117 0.0 3.2 0.00 0.00 0.00 77 1015.5
20260507115017 3 105 0.0 1.6 0.00 0.00 0.00 81 1015.4
20260507114058 2 104 0.0 3.2 0.00 0.00 0.00 83 1015.3
20260507113037 2 124 0.0 1.6 0.00 0.00 0.00 84 1015.3
20260507112020 1 104 0.0 1.6 0.00 0.00 0.00 87 1015.2
20260507111040 0 96 0.0 3.2 0.00 0.00 0.00 90 1015.2
20260507110020 0 0.0 0.0 0.00 0.00 0.00 92 1015.1
20260507105021 0 0.0 0.0 0.00 0.00 0.00 92 1015.1
20260507104021 0 112 0.0 1.6 0.00 0.00 0.00 92 1015.2
20260507103041 0 23 0.0 0.0 0.00 0.00 0.00 92 1015.2
20260507102021 0 0.0 0.0 0.00 0.00 0.00 95 1015.3
20260507101022 0 112 0.0 0.0 0.00 0.00 0.00 95 1015.2
20260507100022 0 0.0 0.0 0.00 0.00 0.00 95 1015.2
20260507095022 0 0.0 0.0 0.00 0.00 0.00 95 1015.3
20260507094022 0 0.0 0.0 0.00 0.00 0.00 95 1015.3
20260507093022 0 0.0 0.0 0.00 0.00 0.00 94 1015.3
20260507092022 0 0.0 0.0 0.00 0.00 0.00 93 1015.4
20260507091023 0 0.0 0.0 0.00 0.00 0.00 93 1015.4
20260507090103 0 0.0 0.0 0.00 0.00 0.00 92 1015.5
20260507085023 0 0.0 0.0 0.00 0.00 0.00 92 1015.4
20260507084023 0 0.0 0.0 0.00 0.00 0.00 91 1015.4
20260507083023 1 0.0 0.0 0.00 0.00 0.00 90 1015.5
20260507082023 1 0.0 0.0 0.00 0.00 0.00 90 1015.4
20260507081024 1 0.0 0.0 0.00 0.00 0.00 89 1015.4
20260507080024 1 0.0 0.0 0.00 0.00 0.00 91 1015.4
20260507075024 1 117 0.0 1.6 0.00 0.00 0.00 90 1015.3
20260507074024 1 0.0 0.0 0.00 0.00 0.00 90 1015.3
20260507073024 1 0.0 0.0 0.00 0.00 0.00 90 1015.2
20260507072024 1 0.0 0.0 0.00 0.00 0.00 89 1015.4
20260507071025 1 110 0.0 1.6 0.00 0.00 0.00 89 1015.4
20260507070025 1 0.0 0.0 0.00 0.00 0.00 87 1015.4
20260507065025 1 0.0 0.0 0.00 0.00 0.00 86 1015.5
20260507064026 1 0.0 0.0 0.00 0.00 0.00 86 1015.6
20260507063027 1 0.0 0.0 0.00 0.00 0.00 88 1015.6
20260507062025 1 0.0 0.0 0.00 0.00 0.00 88 1015.6
20260507061026 1 118 0.0 1.6 0.00 0.00 0.00 85 1015.6
20260507060026 1 0.0 0.0 0.00 0.00 0.00 85 1015.7
20260507055106 2 116 0.0 1.6 0.00 0.00 0.00 85 1015.7
20260507054027 2 0.0 0.0 0.00 0.00 0.00 84 1015.6
20260507053026 2 0.0 0.0 0.00 0.00 0.00 84 1015.6
20260507052107 2 0.0 0.0 0.00 0.00 0.00 81 1015.7
20260507051047 2 0.0 0.0 0.00 0.00 0.00 81 1015.7
20260507050027 3 56 0.0 1.6 0.00 0.00 0.00 78 1015.7
20260507045027 3 0.0 0.0 0.00 0.00 0.00 74 1015.7
20260507044027 3 84 0.0 1.6 0.00 0.00 0.00 74 1015.6
20260507043028 3 289 0.0 3.2 0.00 0.00 0.00 75 1015.6
20260507042028 3 56 0.0 0.0 0.00 0.00 0.00 74 1015.6
20260507041048 3 62 0.0 1.6 0.00 0.00 0.00 72 1015.7
20260507040028 5 82 0.0 1.6 0.00 0.00 0.00 72 1015.6
20260507035048 5 0.0 0.0 0.00 0.00 0.00 65 1015.6
20260507034029 6 17 3.2 6.4 0.00 0.00 0.00 62 1015.7
20260507033017 6 348 3.2 8.0 0.00 0.00 0.00 61 1015.7
20260507032017 6 320 0.0 8.0 0.00 0.00 0.00 60 1015.7
20260507031017 7 37 1.6 4.8 0.00 0.00 0.00 57 1015.6
20260507030017 7 18 1.6 6.4 0.00 0.00 0.00 56 1015.7
20260507025017 7 13 1.6 6.4 0.00 0.00 0.00 55 1015.6
20260507024018 7 360 1.6 8.0 0.00 0.00 0.00 55 1015.5
20260507023018 7 357 1.6 6.4 0.00 0.00 0.00 54 1015.4
20260507022036 8 325 1.6 4.8 0.00 0.00 0.00 53 1015.3
20260507021036 8 327 1.6 4.8 0.00 0.00 0.00 52 1015.1
20260507020036 8 325 3.2 9.7 0.00 0.00 0.00 51 1015.0
20260507015016 8 334 3.2 8.0 0.00 0.00 0.00 50 1014.8
20260507014017 9 327 3.2 8.0 0.00 0.00 0.00 50 1014.7
20260507013016 9 332 4.8 9.7 0.00 0.00 0.00 48 1014.7
20260507012016 10 330 3.2 8.0 0.00 0.00 0.00 49 1014.6
20260507011017 10 331 4.8 8.0 0.00 0.00 0.00 48 1014.7
20260507010017 10 331 4.8 9.7 0.00 0.00 0.00 47 1014.5
20260507005017 10 306 8.0 16.1 0.00 0.00 0.00 46 1014.5
20260507004017 11 307 4.8 12.9 0.00 0.00 0.00 46 1014.5
20260507003017 11 309 6.4 14.5 0.00 0.00 0.00 45 1014.4
20260507002016 11 310 4.8 9.7 0.00 0.00 0.00 45 1014.3
20260507001016 11 311 6.4 12.9 0.00 0.00 0.00 44 1014.2
20260507000016 12 318 6.4 12.9 0.00 0.00 0.00 44 1014.0
20260506235016 12 314 4.8 11.3 0.00 0.00 0.00 44 1014.0
20260506234015 12 316 6.4 16.1 0.00 0.00 0.00 43 1013.9
20260506233015 12 315 4.8 12.9 0.00 0.00 0.00 43 1013.9
20260506232016 13 313 8.0 14.5 0.00 0.00 0.00 41 1013.8
20260506231016 12 321 6.4 14.5 0.00 0.00 0.00 42 1013.8
20260506230016 12 316 8.0 16.1 0.00 0.00 0.00 42 1013.6
20260506225016 12 314 6.4 11.3 0.00 0.00 0.00 42 1013.5
20260506224016 12 320 6.4 14.5 0.00 0.00 0.00 43 1013.6
20260506223017 13 313 8.0 14.5 0.00 0.00 0.00 42 1013.6
20260506222017 13 312 6.4 16.1 0.00 0.00 0.00 43 1013.5
20260506221017 13 310 8.0 14.5 0.00 0.00 0.00 42 1013.5
20260506220017 13 318 6.4 12.9 0.00 0.00 0.00 42 1013.4
20260506215037 13 300 8.0 14.5 0.00 0.00 0.00 41 1013.5
20260506214017 13 303 8.0 14.5 0.00 0.00 0.00 41 1013.4
20260506213018 13 312 6.4 12.9 0.00 0.00 0.00 42 1013.3
20260506212018 13 315 8.0 17.7 0.00 0.00 0.00 42 1013.3
20260506211018 13 311 9.7 17.7 0.00 0.00 0.00 40 1013.3
20260506210018 14 305 11.3 22.5 0.00 0.00 0.00 40 1013.4
20260506205019 13 307 8.0 12.9 0.00 0.00 0.00 41 1013.4
20260506204016 14 304 8.0 16.1 0.00 0.00 0.00 40 1013.4
20260506203016 13 304 8.0 20.9 0.00 0.00 0.00 41 1013.5
20260506202016 13 301 8.0 14.5 0.00 0.00 0.00 41 1013.5
20260506201016 13 305 8.0 17.7 0.00 0.00 0.00 41 1013.7
20260506200036 13 306 8.0 14.5 0.00 0.00 0.00 42 1013.8
20260506195037 13 312 6.4 12.9 0.00 0.00 0.00 43 1013.9
20260506194017 13 306 9.7 17.7 0.00 0.00 0.00 44 1014.0
20260506193017 13 305 9.7 14.5 0.00 0.00 0.00 43 1014.0
20260506192017 13 304 6.4 12.9 0.00 0.00 0.00 44 1014.0
20260506191017 12 312 8.0 17.7 0.00 0.00 0.00 44 1014.1
20260506190018 12 310 6.4 12.9 0.00 0.00 0.00 46 1014.0
20260506185019 12 309 4.8 11.3 0.00 0.00 0.00 47 1014.1
20260506184018 13 308 6.4 14.5 0.00 0.00 0.00 46 1014.2
20260506183018 13 308 8.0 14.5 0.00 0.00 0.00 45 1014.0
20260506182018 13 305 6.4 14.5 0.00 0.00 0.00 45 1014.0
20260506181021 13 309 4.8 12.9 0.00 0.00 0.00 46 1014.1
20260506180015 12 308 6.4 14.5 0.00 0.00 0.00 46 1014.1
20260506175016 12 306 4.8 11.3 0.00 0.00 0.00 45 1014.2
20260506174016 12 312 4.8 11.3 0.00 0.00 0.00 43 1014.2
20260506173036 13 312 6.4 12.9 0.00 0.00 0.00 42 1014.3
20260506172016 13 311 6.4 16.1 0.00 0.00 0.00 42 1014.3
20260506171016 13 313 4.8 12.9 0.00 0.00 0.00 43 1014.3
20260506170016 13 307 4.8 12.9 0.00 0.00 0.00 44 1014.2
20260506165016 13 309 6.4 16.1 0.00 0.00 0.00 43 1014.1
20260506164017 12 316 4.8 11.3 0.00 0.00 0.00 42 1014.1
20260506163017 12 310 6.4 12.9 0.00 0.00 0.00 42 1014.1
20260506162017 12 316 4.8 11.3 0.00 0.00 0.00 42 1014.1
20260506161017 12 330 4.8 11.3 0.00 0.00 0.00 41 1014.0
20260506160017 12 318 4.8 12.9 0.00 0.00 0.00 44 1014.0
20260506155018 12 309 4.8 8.0 0.00 0.00 0.00 44 1014.0
20260506154018 12 313 4.8 11.3 0.00 0.00 0.00 45 1014.0
20260506153018 12 310 3.2 6.4 0.00 0.00 0.00 47 1014.0
20260506152038 12 312 4.8 9.7 0.00 0.00 0.00 46 1014.1
20260506151018 12 308 1.6 6.4 0.00 0.00 0.00 49 1014.2
20260506150016 11 303 1.6 8.0 0.00 0.00 0.00 48 1014.3
20260506145015 11 308 1.6 6.4 0.00 0.00 0.00 50 1014.2
20260506144016 11 304 1.6 4.8 0.00 0.00 0.00 51 1014.2
20260506143016 11 287 1.6 8.0 0.00 0.00 0.00 51 1014.2
20260506142016 11 307 0.0 3.2 0.00 0.00 0.00 54 1014.3
20260506141016 11 314 0.0 6.4 0.00 0.00 0.00 55 1014.3